Oxford, NC

8:35 AM EST on November 14, 2019 (GMT -0500)
Henderson-Oxford

Weather History for KHNZ - September, 2019

Change the Weather History Date:

Sunday, September 29, 2019

  Actual Average (WUND) Record (WUND)
Temperature  
Mean Temperature 79 °F -  
Max Temperature 92 °F - - (-1)
Min Temperature 66 °F - - (-1)
Cooling Degree Days 14    
Growing Degree Days 29 (Base 50)    
Moisture  
Dew Point 65 °F    
Average Humidity 67    
Maximum Humidity 93    
Minimum Humidity 35    
Precipitation  
Precipitation 0.00 in - - ()
Sea Level Pressure  
Sea Level Pressure 30.17 in    
Wind  
Wind Speed 1 mph (ENE)    
Max Wind Speed 12 mph    
Max Gust Speed 20 mph    
Visibility 10 miles    
Events      
Averages and records for this station are not official NWS values.
T = Trace of Precipitation, MM = Missing Value Source: NWS Daily Summary

Daily Weather History Graph

Daily Weather History Graph

Search for Another Location

Airport or City:

Astronomy

Sep. 29, 2019 Rise Set
Actual Time 7:07 AM EDT 7:00 PM EDT
Civil Twilight 6:41 AM EDT 7:26 PM EDT
Nautical Twilight 6:11 AM EDT 7:56 PM EDT
Astronomical Twilight 5:41 AM EDT 8:26 PM EDT
Moon 7:55 AM EDT (9/29) 8:01 PM EDT (9/29)
Length of Visible Light 12h 44m
Length of Day
11h 53m
New Moon, 1% of the Moon is Illuminated
Sep 29
New Moon
Oct 5
First Quarter
Oct 13
Full
Oct 21
Last Quarter
Oct 27
New

Hourly Weather History & Observations

Time (EDT) Temp. Heat Index Dew Point Humidity Pressure Visibility Wind Dir Wind Speed Gust Speed Precip Events Conditions
12:15 AM 71.6 °F - 65.7 °F 81% 30.16 in 10.0 mi Calm Calm - N/A   Clear
12:35 AM 72.5 °F - 65.7 °F 79% 30.16 in 10.0 mi Calm Calm - N/A   Clear
12:55 AM 70.3 °F - 65.7 °F 85% 30.15 in 10.0 mi Calm Calm - N/A   Clear
1:15 AM 70.7 °F - 65.7 °F 84% 30.16 in 10.0 mi Calm Calm - N/A   Clear
1:35 AM 70.3 °F - 65.7 °F 85% 30.16 in 10.0 mi Calm Calm - N/A   Clear
1:55 AM 70.2 °F - 65.5 °F 85% 30.16 in 10.0 mi Calm Calm - N/A   Clear
2:15 AM 70.2 °F - 65.3 °F 85% 30.16 in 10.0 mi Calm Calm - N/A   Clear
2:35 AM 70.0 °F - 65.5 °F 86% 30.16 in 10.0 mi Calm Calm - N/A   Clear
2:55 AM 68.0 °F - 65.3 °F 91% 30.16 in 10.0 mi Calm Calm - N/A   Clear
3:15 AM 69.3 °F - 65.3 °F 87% 30.16 in 10.0 mi Calm Calm - N/A   Clear
3:35 AM 68.9 °F - 65.3 °F 88% 30.15 in 10.0 mi Calm Calm - N/A   Clear
3:55 AM 69.8 °F - 64.8 °F 84% 30.15 in 10.0 mi Calm Calm - N/A   Clear
4:15 AM 68.0 °F - 64.8 °F 89% 30.15 in 10.0 mi Calm Calm - N/A   Clear
4:35 AM 68.0 °F - 65.1 °F 90% 30.15 in 10.0 mi Calm Calm - N/A   Clear
4:55 AM 67.6 °F - 64.4 °F 89% 30.15 in 10.0 mi Calm Calm - N/A   Clear
5:15 AM 68.4 °F - 64.6 °F 88% 30.16 in 10.0 mi Calm Calm - N/A   Clear
5:35 AM 69.6 °F - 64.4 °F 83% 30.16 in 10.0 mi Calm Calm - N/A   Clear
5:55 AM 66.4 °F - 64.2 °F 93% 30.16 in 10.0 mi Calm Calm - N/A   Clear
6:15 AM 67.8 °F - 64.4 °F 89% 30.16 in 10.0 mi Calm Calm - N/A   Clear
6:35 AM 68.4 °F - 64.4 °F 87% 30.17 in 10.0 mi Calm Calm - N/A   Clear
6:55 AM 68.2 °F - 64.4 °F 88% 30.17 in 10.0 mi WSW 3.5 mph - N/A   Clear
7:15 AM 68.2 °F - 64.4 °F 88% 30.18 in 10.0 mi Calm Calm - N/A   Clear
7:35 AM 68.5 °F - 64.4 °F 87% 30.18 in 10.0 mi Calm Calm - N/A   Clear
7:55 AM 70.0 °F - 64.6 °F 83% 30.19 in 10.0 mi Calm Calm - N/A   Clear
8:15 AM 71.1 °F - 64.9 °F 81% 30.19 in 10.0 mi Calm Calm - N/A   Clear
8:35 AM 72.9 °F - 65.7 °F 78% 30.20 in 10.0 mi Calm Calm - N/A   Clear
8:55 AM 75.4 °F - 66.6 °F 74% 30.20 in 10.0 mi Calm Calm - N/A   Clear
9:15 AM 76.8 °F - 67.1 °F 72% 30.21 in 10.0 mi Calm Calm - N/A   Clear
9:35 AM 77.7 °F - 67.3 °F 70% 30.21 in 10.0 mi NNW 5.8 mph - N/A   Clear
10:15 AM 80.1 °F 82.6 °F 67.6 °F 66% 30.21 in 10.0 mi North 6.9 mph - N/A   Clear
10:35 AM 81.3 °F 84.0 °F 67.6 °F 63% 30.22 in 10.0 mi NNE 6.9 mph - N/A   Clear
10:55 AM 82.6 °F 85.3 °F 67.3 °F 60% 30.22 in 10.0 mi ENE 3.5 mph - N/A   Clear
11:15 AM 83.8 °F 86.5 °F 67.3 °F 57% 30.22 in 10.0 mi Calm Calm - N/A   Clear
11:35 AM 85.3 °F 87.6 °F 66.4 °F 53% 30.21 in 10.0 mi NNE 3.5 mph - N/A   Clear
11:55 AM 85.5 °F 87.9 °F 66.4 °F 53% 30.21 in 10.0 mi East 4.6 mph - N/A   Clear
12:15 PM 86.4 °F 88.7 °F 66.2 °F 51% 30.21 in 10.0 mi North 4.6 mph - N/A   Clear
12:35 PM 88.3 °F 90.2 °F 65.1 °F 46% 30.20 in 10.0 mi ENE 6.9 mph - N/A   Clear
12:55 PM 88.9 °F 90.7 °F 65.3 °F 45% 30.19 in 10.0 mi NNE 8.1 mph - N/A   Clear
1:35 PM 90.3 °F 92.2 °F 64.9 °F 43% 30.18 in 10.0 mi Calm Calm - N/A   Clear
1:55 PM 90.5 °F 91.8 °F 63.5 °F 41% 30.17 in 10.0 mi North 4.6 mph - N/A   Clear
2:15 PM 90.5 °F 91.4 °F 63.3 °F 40% 30.17 in 10.0 mi Calm Calm - N/A   Clear
2:35 PM 90.7 °F 91.7 °F 63.0 °F 40% 30.16 in 10.0 mi NE 5.8 mph - N/A   Clear
2:55 PM 90.9 °F 91.6 °F 62.4 °F 39% 30.16 in 10.0 mi Calm Calm - N/A   Clear
3:15 PM 92.1 °F 92.8 °F 62.1 °F 37% 30.16 in 10.0 mi NNE 5.8 mph - N/A   Scattered Clouds
3:55 PM 91.0 °F 91.5 °F 61.9 °F 38% 30.14 in 10.0 mi ENE 6.9 mph - N/A   Scattered Clouds
4:15 PM 91.4 °F 91.4 °F 61.0 °F 36% 30.14 in 10.0 mi NE 3.5 mph - N/A   Scattered Clouds
4:35 PM 89.4 °F 89.5 °F 61.3 °F 39% 30.13 in 10.0 mi Calm Calm - N/A   Scattered Clouds
4:55 PM 90.5 °F 90.1 °F 59.9 °F 36% 30.13 in 10.0 mi ENE 8.1 mph - N/A   Clear
5:35 PM 90.1 °F 89.3 °F 59.4 °F 35% 30.13 in 10.0 mi Calm Calm - N/A   Clear
5:55 PM 89.1 °F 88.5 °F 59.7 °F 37% 30.13 in 10.0 mi Calm Calm - N/A   Clear
6:15 PM 87.8 °F 87.9 °F 61.2 °F 41% 30.13 in 10.0 mi Calm Calm - N/A   Clear
6:35 PM 86.0 °F 86.3 °F 61.7 °F 44% 30.13 in 10.0 mi Calm Calm - N/A   Clear
6:55 PM 83.1 °F 83.9 °F 61.9 °F 49% 30.13 in 10.0 mi Calm Calm - N/A   Clear
7:35 PM 79.9 °F - 62.6 °F 55% 30.15 in 10.0 mi Calm Calm - N/A   Clear
7:55 PM 80.1 °F 81.5 °F 63.0 °F 56% 30.16 in 10.0 mi Calm Calm - N/A   Clear
8:15 PM 78.6 °F - 64.2 °F 61% 30.16 in 10.0 mi Calm Calm - N/A   Clear
8:35 PM 78.1 °F - 64.0 °F 62% 30.18 in 10.0 mi East 5.8 mph - N/A   Clear
8:55 PM 79.7 °F - 65.8 °F 62% 30.19 in 10.0 mi East 6.9 mph - N/A   Clear
9:15 PM 79.7 °F - 66.7 °F 64% 30.20 in 10.0 mi East 4.6 mph - N/A   Clear
9:35 PM 78.4 °F - 67.1 °F 68% 30.21 in 10.0 mi East 9.2 mph - N/A   Clear
9:55 PM 77.9 °F - 67.1 °F 69% 30.21 in 10.0 mi East 11.5 mph 19.6 mph N/A   Clear
10:15 PM 77.4 °F - 66.6 °F 69% 30.20 in 10.0 mi East 11.5 mph - N/A   Clear
10:35 PM 76.3 °F - 66.7 °F 72% 30.21 in 10.0 mi ESE 9.2 mph - N/A   Clear
10:55 PM 75.6 °F - 67.1 °F 75% 30.22 in 10.0 mi Calm Calm - N/A   Clear
11:15 PM 74.8 °F - 67.5 °F 78% 30.22 in 10.0 mi East 8.1 mph - N/A   Clear
11:55 PM 73.4 °F - 67.6 °F 82% 30.22 in 10.0 mi Calm Calm - N/A   Clear